MDT,Max TemperatureF,Mean TemperatureF,Min TemperatureF,Max Dew PointF,MeanDew PointF,Min DewpointF,Max Humidity, Mean Humidity, Min Humidity, Max Sea Level PressureIn, Mean Sea Level PressureIn, Min Sea Level PressureIn, Max VisibilityMiles, Mean VisibilityMiles, Min VisibilityMiles, Max Wind SpeedMPH, Mean Wind SpeedMPH, Max Gust SpeedMPH,PrecipitationIn, CloudCover, Events, WindDirDegrees
2013-8-1,93,78,62,55,50,43,52,41,24,30.09,30.02,29.89,15,12,9,23,9,38,0.00,2,,136
2013-8-2,91,76,62,54,49,34,68,45,14,30.16,30.00,29.94,15,11,2,17,8,24,0.00,1,,140
2013-8-3,91,76,62,52,44,34,49,37,13,30.13,30.06,30.00,15,12,10,12,5,,0.00,1,,121
2013-8-4,95,78,60,54,43,37,55,35,14,30.16,30.09,30.01,15,12,9,21,6,24,0.00,1,,129
2013-8-5,91,78,64,52,47,39,53,37,16,30.13,30.06,29.98,15,11,9,14,5,,0.00,1,,114
2013-8-6,91,78,64,55,47,37,56,38,15,30.08,30.02,29.99,15,12,10,17,7,23,0.00,2,,135
2013-8-7,91,76,60,55,45,39,57,39,18,30.08,30.04,29.99,15,12,9,23,6,31,0.00,2,,132
2013-8-8,86,74,62,50,46,43,63,41,22,30.07,30.04,29.99,15,11,10,15,8,23,0.00,1,,122
2013-8-9,82,70,59,52,44,37,52,42,20,30.09,30.06,30.03,15,12,10,23,9,33,0.00,2,,141
2013-8-10,89,72,55,52,45,37,77,44,16,30.18,30.11,30.06,15,12,10,17,7,30,0.00,2,,162
2013-8-11,89,73,57,52,43,37,63,35,16,30.20,30.12,30.03,15,12,10,14,9,,0.00,1,,132
2013-8-12,89,74,60,46,43,34,55,37,15,30.17,30.11,30.08,15,12,10,22,9,37,0.00,2,,149
2013-8-13,91,74,57,55,43,30,63,40,11,30.20,30.12,30.05,15,11,5,10,5,,0.00,1,,147
2013-8-14,95,78,60,55,43,30,56,36,11,30.17,30.10,30.02,15,11,5,12,5,,0.00,1,,227
2013-8-15,93,73,53,55,40,30,62,37,11,30.17,30.10,30.05,15,12,9,12,5,,0.00,1,,154
2013-8-16,93,75,57,57,40,28,57,33,14,30.18,30.11,30.05,15,12,5,12,5,,0.00,1,,123
2013-8-17,93,78,62,61,49,41,72,47,22,30.22,30.11,30.06,15,11,5,16,5,,0.00,2,Rain,130
2013-8-18,89,74,60,63,54,46,73,56,22,30.18,30.13,30.05,15,12,5,10,6,,0.00,1,,120
2013-8-19,89,76,62,57,52,48,68,51,24,30.18,30.13,30.06,15,12,10,14,5,,0.00,2,Rain,129
2013-8-20,87,74,62,61,55,48,83,60,25,30.14,30.11,30.05,15,12,10,17,4,23,0.00,2,,142
2013-8-21,91,76,62,64,55,45,73,56,20,30.18,30.12,30.05,15,12,10,10,4,,0.00,1,,149
2013-8-22,87,76,66,57,53,45,64,48,22,30.20,30.14,30.02,15,12,10,24,6,31,0.00,3,Thunderstorm,221
2013-8-23,73,68,64,63,58,55,88,70,57,30.18,30.08,30.00,15,10,6,17,5,22,0.07,4,Thunderstorm,160
2013-8-24,84,70,57,57,54,50,88,68,33,30.13,30.08,30.02,15,12,10,20,7,26,0.00,3,Rain-Thunderstorm,128
2013-8-25,82,68,55,55,52,48,82,55,32,30.19,30.13,30.08,15,12,10,21,12,21,0.00,2,,153
2013-8-26,75,64,53,61,54,50,94,58,41,30.23,30.17,30.14,15,12,10,14,9,21,0.00,3,,157
2013-8-27,77,70,62,61,57,54,94,70,47,30.17,30.14,30.06,15,11,4,33,7,45,0.32,2,Rain-Thunderstorm,162
2013-8-28,87,73,59,63,57,48,94,71,25,30.18,30.13,30.07,15,12,10,17,4,28,0.32,1,,144
2013-8-29,91,76,60,63,55,48,82,58,23,30.23,30.17,30.12,15,11,10,16,5,,0.00,1,,131
2013-8-30,91,76,62,61,55,52,72,55,26,30.22,30.15,30.06,15,11,9,13,4,,0.00,1,,123
2013-8-31,82,72,62,61,56,54,77,60,39,30.15,30.12,30.08,15,12,4,17,5,,0.00,2,,120